Date,TemperatureHighF,TemperatureAvgF,TemperatureLowF,DewpointHighF,DewpointAvgF,DewpointLowF,HumidityHigh,HumidityAvg,HumidityLow,PressureMaxIn,PressureMinIn,WindSpeedMaxMPH,WindSpeedAvgMPH,GustSpeedMaxMPH,PrecipitationSumIn
2013-2-1,72,64,55,53,46,37,53,41,34,30.15,30.03,9,6,11,0.00
2013-2-2,73,66,58,50,46,34,52,39,28,30.12,29.97,7,3,8,0.00
2013-2-3,72,66,59,56,48,41,85,46,26,30.03,29.94,10,3,11,0.00
2013-2-4,72,64,55,51,45,38,68,41,24,30.03,29.88,6,2,7,0.00
2013-2-5,77,69,59,60,56,49,83,59,42,29.94,29.85,5,2,8,0.00
2013-2-6,78,71,64,68,62,58,92,68,48,29.97,29.88,9,3,9,0.00
2013-2-7,81,75,71,64,62,59,69,58,44,29.94,29.83,7,3,10,0.00
2013-2-8,82,75,70,72,67,62,98,75,44,29.88,29.77,11,3,13,0.00
2013-2-9,78,72,67,70,62,56,97,67,48,30.03,29.88,9,4,11,0.00
2013-2-10,74,72,70,66,59,53,80,57,43,30.12,30.00,11,7,13,0.00
2013-2-11,80,74,70,63,61,58,70,58,45,30.09,29.97,8,4,9,0.00
2013-2-12,82,75,71,70,67,63,89,70,51,29.97,29.83,9,3,13,0.00
2013-2-13,82,76,72,74,72,69,95,83,62,29.88,29.77,10,3,13,0.00
2013-2-14,79,72,64,75,70,64,98,91,74,29.88,29.71,17,3,17,5.73
2013-2-15,72,68,65,68,67,64,98,95,80,29.88,29.80,7,3,8,2.06
2013-2-16,74,67,57,66,56,43,98,67,25,29.94,29.74,16,8,20,0.00
2013-2-17,59,53,47,44,29,19,52,30,14,30.15,29.94,13,7,17,0.00
2013-2-18,69,61,49,53,43,32,53,42,32,30.18,30.06,9,6,13,0.00
2013-2-19,77,72,67,68,58,50,91,55,44,30.06,29.94,9,4,10,0.00
2013-2-20,76,71,66,67,64,54,98,76,41,29.97,29.88,8,2,8,0.00
2013-2-21,81,75,71,68,65,59,87,66,46,29.94,29.85,7,4,9,0.00
2013-2-22,83,76,72,73,71,67,96,80,56,29.97,29.88,10,5,12,0.00
2013-2-23,83,77,74,74,72,70,96,80,60,29.91,29.80,8,4,13,0.00
2013-2-24,84,77,72,75,73,67,98,84,53,29.85,29.77,6,1,10,0.00
2013-2-25,84,77,71,76,73,69,96,84,66,29.80,29.68,9,2,10,0.00
2013-2-26,84,78,75,75,73,67,92,79,56,29.77,29.68,9,3,13,0.00
2013-2-27,77,72,68,74,68,58,98,84,45,29.83,29.71,7,3,9,0.49
2013-2-28,70,66,62,67,53,39,97,57,24,29.88,29.77,10,4,12,0.00